Date,TemperatureHighF,TemperatureAvgF,TemperatureLowF,DewpointHighF,DewpointAvgF,DewpointLowF,HumidityHigh,HumidityAvg,HumidityLow,PressureMaxIn,PressureMinIn,WindSpeedMaxMPH,WindSpeedAvgMPH,GustSpeedMaxMPH,PrecipitationSumIn
2013-9-1,90,81,75,66,63,60,69,54,39,29.79,29.71,21,8,25,0.00
2013-9-2,94,84,75,62,57,50,59,41,27,29.79,29.67,29,5,29,0.00
2013-9-3,94,85,72,58,55,50,55,37,26,29.79,29.69,23,5,25,0.00
2013-9-4,98,85,69,57,54,50,58,36,21,29.83,29.70,18,4,23,0.00
2013-9-5,98,85,72,57,51,48,52,33,20,29.80,29.69,19,3,24,0.00
2013-9-6,98,85,69,52,48,43,51,30,19,29.80,29.65,23,4,26,0.00
2013-9-7,98,84,67,51,44,39,47,26,15,29.78,29.65,21,4,24,0.00
2013-9-8,97,84,70,51,42,38,39,24,14,29.73,29.59,24,3,24,0.00
2013-9-9,95,82,72,54,48,39,50,33,20,29.71,29.55,22,4,24,0.00
2013-9-10,88,80,76,43,40,38,29,25,19,29.73,29.60,31,11,31,0.00
2013-9-11,88,80,73,48,40,32,34,25,20,29.81,29.73,24,8,28,0.00
2013-9-12,92,81,68,49,40,24,41,25,10,29.80,29.69,22,4,23,0.00
2013-9-13,96,81,66,49,45,40,44,29,18,29.73,29.55,17,2,17,0.00
2013-9-14,98,82,65,52,47,42,56,32,15,29.64,29.51,20,3,20,0.00
2013-9-15,96,83,67,53,45,39,53,29,15,29.67,29.57,24,4,27,0.00
2013-9-16,94,81,64,47,40,28,44,25,16,29.73,29.61,23,3,27,0.00
2013-9-17,87,76,64,48,37,18,44,27,9,29.68,29.57,22,6,23,0.00
2013-9-18,88,73,58,51,41,30,55,35,13,29.70,29.61,17,2,18,0.00
2013-9-19,93,75,57,50,39,28,62,33,10,29.77,29.64,13,2,15,0.00
2013-9-20,86,73,60,56,44,34,63,37,22,29.72,29.61,32,6,32,0.00
2013-9-21,75,67,59,53,49,45,69,53,41,29.74,29.64,28,9,31,0.00
2013-9-22,70,61,53,48,42,36,71,51,31,29.86,29.71,24,9,27,0.00
2013-9-23,87,67,50,44,39,34,72,41,16,29.95,29.82,13,1,13,0.00
2013-9-24,87,73,57,43,36,29,51,29,14,29.86,29.71,29,6,30,0.00
2013-9-25,74,65,58,52,43,39,60,44,31,29.72,29.57,28,10,29,0.00
2013-9-26,66,58,51,40,35,26,63,44,22,29.88,29.64,24,9,27,0.00
2013-9-27,73,60,46,37,28,20,62,32,14,30.05,29.88,18,4,19,0.00
2013-9-28,82,66,44,34,28,22,62,27,12,30.08,29.94,13,1,13,0.00
2013-9-29,88,70,49,34,29,18,46,24,9,30.02,29.88,18,4,20,0.00
2013-9-30,83,74,64,40,36,30,35,25,18,29.92,29.75,24,6,26,0.00